Flag for U.S.A. Weather past 2 weeks in Omaha, Nebraska, U.S.A.

Now
27 °F

Partly sunny.


Feels Like: 27 °F
Forecast: 20 / 29 °F
Wind: No wind

Location: Millard Airport

Current Time: Dec 17, 2014 at 2:01:58 PM

Latest Report: Dec 17, 2014 at 1:15 PM


Visibility: 10 mi

Pressure: 30.30 "Hg

Humidity: 60%

Dew point: 15 °F

Location of OmahaLocation

Historic Weather in Omaha — Graph

°F

Omaha temperature yesterday

Maximum temperature yesterday: 28 °F (at 12:15 AM)
Minimum temperature yesterday: 20 °F (at 10:35 PM)
Average temperature yesterday: 25 °F

Past Weeks' High & Low Weather Summary

 TemperatureHumidityPressure
High58 °F (Dec 12, 2:55 PM)97% (Dec 5, 6:55 AM)30.59 "Hg (Dec 5, 6:55 AM)
Low19 °F (Dec 17, 5:35 AM)24% (Dec 2, 2:55 PM)29.61 "Hg (Dec 15, 12:35 PM)
Average37 °F80%30.18 "Hg
* Reported Dec 2 12:15 PM — Dec 17 12:55 PM, Omaha, Weather by CustomWeather, © 2014

Note: Actual official high and low records may vary slightly from our data, if they occured in-between our weather recording intervals... More about our weather records

Advertising

Omaha weather history for previous 24 hours

 ConditionsComfort  
Time TempWeatherWind HumidityBarometerVisibility
12:55 PM
Dec 17
26 °FOvercast.No wind61%30.30 "Hg10 mi
12:35 PM26 °FOvercast.No wind62%30.31 "Hg10 mi
11:55 AM25 °FPartly sunny.No wind63%30.33 "Hg10 mi
11:35 AM25 °FSunny.No wind65%30.34 "Hg10 mi
11:15 AM24 °FScattered clouds.No wind64%30.34 "Hg10 mi
10:55 AM24 °FOvercast.No wind65%30.35 "Hg10 mi
10:35 AM22 °FOvercast.No wind68%30.36 "Hg10 mi
10:15 AM22 °FOvercast.No wind71%30.35 "Hg10 mi
9:55 AM21 °FOvercast.No wind71%30.35 "Hg10 mi
9:35 AM21 °FOvercast.No wind70%30.35 "Hg10 mi
9:15 AM20 °FOvercast.3 mph72%30.35 "Hg10 mi
8:55 AM21 °FOvercast.6 mph74%30.34 "Hg10 mi
8:35 AM19 °FOvercast.No wind75%30.35 "Hg10 mi
8:15 AM19 °FOvercast.No wind73%30.36 "Hg10 mi
7:55 AM19 °FPartly sunny.3 mph75%30.36 "Hg10 mi
7:35 AM19 °FPassing clouds.5 mph74%30.35 "Hg10 mi
7:15 AM19 °FClear.No wind73%30.35 "Hg10 mi
6:55 AM19 °FPassing clouds.No wind73%30.35 "Hg10 mi
6:35 AM19 °FPassing clouds.No wind72%30.35 "Hg10 mi
6:15 AM19 °FPassing clouds.No wind72%30.35 "Hg10 mi
5:55 AM19 °FPassing clouds.No wind73%30.35 "Hg10 mi
5:35 AM19 °FPassing clouds.3 mph74%30.35 "Hg10 mi
5:15 AM19 °FPassing clouds.3 mph73%30.35 "Hg10 mi
4:55 AM20 °FPassing clouds.5 mph73%30.35 "Hg10 mi
4:35 AM20 °FClear.3 mph73%30.35 "Hg10 mi
4:15 AM20 °FPassing clouds.3 mph74%30.36 "Hg10 mi
3:55 AM20 °FPassing clouds.3 mph74%30.36 "Hg10 mi
3:35 AM20 °FPassing clouds.No wind74%30.36 "Hg10 mi
3:15 AM20 °FPassing clouds.6 mph74%30.36 "Hg10 mi
2:55 AM20 °FPartly cloudy.6 mph75%30.37 "Hg10 mi
2:35 AM20 °FPassing clouds.7 mph77%30.35 "Hg10 mi
2:15 AM20 °FPassing clouds.5 mph79%30.36 "Hg10 mi
1:55 AM20 °FPassing clouds.7 mph80%30.36 "Hg10 mi
1:35 AM20 °FPassing clouds.8 mph80%30.36 "Hg10 mi
1:15 AM20 °FPassing clouds.5 mph80%30.35 "Hg10 mi
12:55 AM20 °FPassing clouds.5 mph80%30.35 "Hg10 mi
12:35 AM20 °FClear.5 mph80%30.35 "Hg10 mi
12:15 AM20 °FClear.5 mph80%30.36 "Hg10 mi
11:55 PM
Dec 16
20 °FClear.No wind80%30.37 "Hg10 mi
11:35 PM20 °FPassing clouds.8 mph80%30.36 "Hg10 mi
11:15 PM20 °FPassing clouds.6 mph80%30.37 "Hg10 mi
10:55 PM20 °FPassing clouds.6 mph80%30.36 "Hg10 mi
10:35 PM20 °FPassing clouds.6 mph80%30.37 "Hg10 mi
10:15 PM20 °FPassing clouds.6 mph79%30.37 "Hg10 mi
9:55 PM20 °FPassing clouds.6 mph78%30.37 "Hg10 mi
9:35 PM21 °FPassing clouds.8 mph77%30.35 "Hg10 mi
9:15 PM21 °FPassing clouds.8 mph77%30.37 "Hg10 mi
8:55 PM22 °FPassing clouds.6 mph75%30.36 "Hg10 mi
8:35 PM22 °FPassing clouds.8 mph76%30.36 "Hg10 mi
8:15 PM22 °FClear.8 mph75%30.36 "Hg10 mi
7:55 PM22 °FClear.8 mph77%30.35 "Hg10 mi
7:35 PM23 °FClear.7 mph75%30.35 "Hg10 mi
7:15 PM23 °FClear.8 mph75%30.35 "Hg10 mi
6:55 PM23 °FClear.7 mph75%30.35 "Hg10 mi
6:35 PM24 °FClear.9 mph74%30.35 "Hg10 mi
6:15 PM24 °FClear.9 mph73%30.35 "Hg10 mi
5:55 PM24 °FClear.10 mph72%30.35 "Hg10 mi
5:35 PM25 °FClear.9 mph72%30.34 "Hg10 mi
5:15 PM25 °FClear.15 mph70%30.34 "Hg10 mi
4:55 PM26 °FSunny.12 mph69%30.33 "Hg10 mi
4:35 PM26 °FScattered clouds.15 mph71%30.33 "Hg10 mi
4:15 PM27 °FPartly sunny.13 mph70%30.32 "Hg10 mi
3:55 PM27 °FOvercast.14 mph71%30.32 "Hg10 mi
3:35 PM27 °FOvercast.14 mph71%30.32 "Hg10 mi
3:15 PM28 °FOvercast.16 mph72%30.30 "Hg10 mi
2:55 PM27 °FPartly sunny.9 mph70%30.30 "Hg10 mi
2:35 PM27 °FOvercast.10 mph72%30.30 "Hg10 mi
2:15 PM28 °FOvercast.14 mph70%30.30 "Hg10 mi
Weather by CustomWeather, © 2014

See weather overviewHow to use our weather pages